CW7171 Weather Reports


time (UTC)temp
F
wind
direction
speed
knots
gust
knots
rain 1hr
in
rain 24hr
in
rain mn
in
humidity
%
barometer
mb
20260507133103 44 280 1.7 6.1 0.00 0.00 0.00 47 1015.3
20260507132604 43 344 0.9 2.6 0.00 0.00 0.00 50 1015.3
20260507132104 42 339 1.7 4.3 0.00 0.00 0.00 51 1015.4
20260507131604 42 0 1.7 2.6 0.00 0.00 0.00 50 1015.3
20260507131103 42 0 0.9 4.3 0.00 0.00 0.00 50 1015.3
20260507130604 42 0 1.7 2.6 0.00 0.00 0.00 51 1015.4
20260507130103 42 0 1.7 2.6 0.00 0.00 0.00 51 1015.3
20260507125604 42 0 1.7 4.3 0.00 0.00 0.00 52 1015.3
20260507125104 42 0 1.7 5.2 0.00 0.00 0.00 52 1015.3
20260507124604 42 308 0.9 2.6 0.00 0.00 0.00 52 1015.3
20260507124103 42 11 1.7 2.6 0.00 0.00 0.00 51 1015.3
20260507123603 43 9 0.9 2.6 0.00 0.00 0.00 53 1015.3
20260507123103 43 9 0.9 4.3 0.00 0.00 0.00 51 1015.1
20260507122603 42 6 1.7 4.3 0.00 0.00 0.00 53 1015.1
20260507122104 43 336 1.7 2.6 0.00 0.00 0.00 52 1015.1
20260507121603 43 313 0.9 4.3 0.00 0.00 0.00 52 1015.0
20260507121104 44 326 1.7 2.6 0.00 0.00 0.00 50 1015.1
20260507120605 44 4 0.9 2.6 0.00 0.00 0.00 50 1015.1
20260507120104 43 358 1.7 4.3 0.00 0.00 0.00 52 1015.1
20260507115604 43 347 0.9 5.2 0.00 0.00 0.00 52 1015.0
20260507115104 42 286 0.9 2.6 0.00 0.00 0.00 52 1015.1
20260507114604 44 287 0.9 2.6 0.00 0.00 0.00 52 1015.0
20260507114104 44 294 1.7 2.6 0.00 0.00 0.00 52 1015.0
20260507113604 44 320 0.9 7.0 0.00 0.00 0.00 52 1015.0
20260507113104 44 288 1.7 5.2 0.00 0.00 0.00 52 1015.0
20260507112604 43 357 0.9 2.6 0.00 0.00 0.00 52 1015.0
20260507112104 44 297 1.7 2.6 0.00 0.00 0.00 52 1014.9
20260507111604 44 263 1.7 4.3 0.00 0.00 0.00 53 1014.9
20260507111103 44 330 0.9 2.6 0.00 0.00 0.00 54 1014.9
20260507110604 44 308 0.9 2.6 0.00 0.00 0.00 52 1014.9
20260507110104 44 260 0.9 4.3 0.00 0.00 0.00 55 1014.8
20260507105603 44 321 0.9 2.6 0.00 0.00 0.00 53 1014.9
20260507105104 44 304 0.9 2.6 0.00 0.00 0.00 53 1014.9
20260507104604 44 294 0.9 2.6 0.00 0.00 0.00 54 1014.9
20260507104103 44 318 1.7 2.6 0.00 0.00 0.00 54 1014.9
20260507103604 43 316 1.7 4.3 0.00 0.00 0.00 56 1014.8
20260507103104 42 317 0.9 2.6 0.00 0.00 0.00 59 1014.8
20260507102604 41 319 0.9 2.6 0.00 0.00 0.00 58 1014.7
20260507102104 42 319 0.0 2.6 0.00 0.00 0.00 58 1014.7
20260507101604 42 324 0.9 2.6 0.00 0.00 0.00 55 1014.6
20260507101104 43 326 0.9 2.6 0.00 0.00 0.00 56 1014.7
20260507100603 43 335 0.9 2.6 0.00 0.00 0.00 56 1014.6
20260507100104 43 333 0.9 2.6 0.00 0.00 0.00 57 1014.6
20260507095603 43 310 1.7 2.6 0.00 0.00 0.00 56 1014.5
20260507095103 42 286 0.9 2.6 0.00 0.00 0.00 57 1014.5
20260507094603 41 321 1.7 2.6 0.00 0.00 0.00 61 1014.5
20260507094103 41 329 0.9 2.6 0.00 0.00 0.00 59 1014.5
20260507093603 42 327 1.7 2.6 0.00 0.00 0.00 58 1014.5
20260507093104 43 320 0.9 2.6 0.00 0.00 0.00 58 1014.5
20260507092604 44 15 1.7 5.2 0.00 0.00 0.00 55 1014.5
20260507092104 44 270 0.9 4.3 0.00 0.00 0.00 59 1014.5
20260507091604 44 265 1.7 7.0 0.00 0.00 0.00 60 1014.5
20260507091103 43 335 0.9 4.3 0.00 0.00 0.00 60 1014.5
20260507090603 43 299 1.7 2.6 0.00 0.00 0.00 59 1014.5
20260507090104 42 343 1.7 2.6 0.00 0.00 0.00 60 1014.5
20260507085604 43 350 1.7 4.3 0.00 0.00 0.00 60 1014.4
20260507085104 43 333 1.7 2.6 0.00 0.00 0.00 62 1014.4
20260507084603 42 335 0.9 5.2 0.00 0.00 0.00 61 1014.4
20260507084104 42 283 0.9 2.6 0.00 0.00 0.00 61 1014.3
20260507083603 42 309 1.7 2.6 0.00 0.00 0.00 62 1014.3
20260507083103 42 272 0.9 2.6 0.00 0.00 0.00 64 1014.3
20260507082603 42 299 1.7 2.6 0.00 0.00 0.00 63 1014.3
20260507082103 42 0 0.9 2.6 0.00 0.00 0.00 62 1014.3
20260507081604 41 352 0.9 2.6 0.00 0.00 0.00 63 1014.3
20260507081103 40 349 1.7 4.3 0.00 0.00 0.00 63 1014.2
20260507080604 40 327 0.9 2.6 0.00 0.00 0.00 66 1014.2
20260507080103 40 331 1.7 4.3 0.00 0.00 0.00 65 1014.2
20260507075604 40 285 1.7 2.6 0.00 0.00 0.00 66 1014.1
20260507075103 40 281 0.9 2.6 0.00 0.00 0.00 65 1014.2
20260507074604 40 275 1.7 2.6 0.00 0.00 0.00 66 1014.1
20260507074104 39 336 0.9 2.6 0.00 0.00 0.00 65 1014.1
20260507073603 40 355 1.7 4.3 0.00 0.00 0.00 65 1014.1
20260507073104 39 323 1.7 2.6 0.00 0.00 0.00 67 1014.0
20260507072604 40 302 1.7 2.6 0.00 0.00 0.00 66 1014.0
20260507072104 39 314 0.9 2.6 0.00 0.00 0.00 69 1014.0
20260507071604 39 316 0.9 2.6 0.00 0.00 0.00 70 1014.0
20260507071104 39 294 0.9 2.6 0.00 0.00 0.00 71 1014.0
20260507070603 38 293 1.7 2.6 0.00 0.00 0.00 72 1013.9
20260507070104 38 288 0.9 5.2 0.00 0.00 0.00 74 1014.0
20260507065604 37 320 1.7 2.6 0.00 0.00 0.00 73 1014.0
20260507065104 37 264 0.9 1.7 0.00 0.00 0.00 75 1013.9
20260507064604 38 267 1.7 2.6 0.00 0.00 0.00 74 1013.9
20260507064103 38 262 1.7 2.6 0.00 0.00 0.00 75 1013.9
20260507063604 37 267 0.0 2.6 0.00 0.00 0.00 77 1013.8
20260507063104 37 263 0.9 2.6 0.00 0.00 0.00 77 1013.8
20260507062604 37 263 0.9 2.6 0.00 0.00 0.00 77 1013.8
20260507062104 36 263 0.9 2.6 0.00 0.00 0.00 78 1013.8
20260507061604 36 261 0.9 1.7 0.00 0.00 0.00 79 1013.8
20260507061103 36 260 0.9 2.6 0.00 0.00 0.00 79 1013.7
20260507060604 35 257 0.0 1.7 0.00 0.00 0.00 79 1013.7
20260507060103 35 257 0.9 2.6 0.00 0.00 0.00 79 1013.7
20260507055604 36 256 0.0 0.9 0.00 0.00 0.00 77 1013.7
20260507055104 36 256 0.9 1.7 0.00 0.00 0.00 78 1013.6
20260507054604 36 256 1.7 2.6 0.00 0.00 0.00 77 1013.6
20260507054104 35 256 0.0 2.6 0.00 0.00 0.00 78 1013.5
20260507053604 35 256 1.7 2.6 0.00 0.00 0.00 79 1013.6
20260507053103 35 254 0.9 2.6 0.00 0.00 0.00 79 1013.5
20260507052604 35 254 1.7 2.6 0.00 0.00 0.00 80 1013.5
20260507052104 34 254 0.9 2.6 0.00 0.00 0.00 80 1013.5
20260507051604 34 254 0.9 2.6 0.00 0.00 0.00 80 1013.5
20260507051104 34 254 0.9 1.7 0.00 0.00 0.00 81 1013.4
20260507050603 34 254 0.0 0.9 0.00 0.00 0.00 80 1013.4
20260507050104 34 254 0.0 0.9 0.00 0.00 0.00 82 1013.4
20260507045604 33 254 1.7 2.6 0.00 0.00 0.00 81 1013.4
20260507045104 34 254 0.0 2.6 0.00 0.00 0.00 80 1013.4
20260507044603 34 254 0.0 0.9 0.00 0.00 0.00 80 1013.4
20260507044103 34 253 0.0 0.0 0.00 0.00 0.00 82 1013.4
20260507043603 33 254 0.0 0.0 0.00 0.00 0.00 82 1013.4
20260507043104 33 335 0.0 0.0 0.00 0.00 0.00 83 1013.4
20260507042604 32 314 0.0 0.0 0.00 0.00 0.00 84 1013.3
20260507042104 31 0 0.0 0.0 0.00 0.00 0.00 85 1013.3
20260507041604 30 287 0.0 0.0 0.00 0.00 0.00 85 1013.3
20260507041103 30 346 0.0 0.0 0.00 0.00 0.00 88 1013.3
20260507040604 29 254 0.0 0.0 0.00 0.00 0.00 88 1013.3
20260507040104 28 339 0.0 0.0 0.00 0.00 0.00 88 1013.3
20260507035604 28 0 0.0 0.0 0.00 0.00 0.00 89 1013.3
20260507035103 27 356 0.0 0.0 0.00 0.00 0.00 90 1013.3
20260507034604 27 311 0.0 0.0 0.00 0.00 0.00 91 1013.2
20260507034103 26 0 0.0 0.0 0.00 0.00 0.00 91 1013.2
20260507033603 26 0 0.0 0.0 0.00 0.00 0.00 92 1013.2
20260507033104 25 0 0.0 0.0 0.00 0.00 0.00 92 1013.1
20260507032604 25 0 0.0 0.0 0.00 0.00 0.00 92 1013.1
20260507032104 24 0 0.0 0.0 0.00 0.00 0.00 93 1013.0
20260507031603 24 0 0.0 0.0 0.00 0.00 0.00 93 1013.0
20260507031104 24 0 0.0 0.0 0.00 0.00 0.00 93 1012.9
20260507030604 23 0 0.0 0.0 0.00 0.00 0.00 92 1012.9
20260507030104 23 0 0.0 0.0 0.00 0.00 0.00 92 1012.9
20260507025604 23 0 0.0 0.0 0.00 0.00 0.00 92 1012.9
20260507025104 23 0 0.0 0.0 0.00 0.00 0.00 92 1012.8
20260507024603 23 0 0.0 0.0 0.00 0.00 0.00 92 1012.8
20260507024103 23 0 0.0 0.0 0.00 0.00 0.00 92 1012.7
20260507023604 23 0 0.0 0.0 0.00 0.00 0.00 92 1012.7
20260507023104 23 0 0.0 0.0 0.00 0.00 0.00 92 1012.6
20260507022604 23 0 0.0 0.0 0.00 0.00 0.00 92 1012.6
20260507022104 23 0 0.0 0.0 0.00 0.00 0.00 92 1012.6
20260507021605 23 0 0.0 0.0 0.00 0.00 0.00 92 1012.6
20260507021104 23 0 0.0 0.0 0.00 0.00 0.00 91 1012.5
20260507020604 23 0 0.0 0.0 0.00 0.00 0.00 91 1012.5
20260507020104 23 0 0.0 0.0 0.00 0.00 0.00 91 1012.5
20260507015604 23 0 0.0 0.0 0.00 0.00 0.00 91 1012.6
20260507015104 24 0 0.0 0.0 0.00 0.00 0.00 91 1012.5
20260507014604 24 0 0.0 0.0 0.00 0.00 0.00 92 1012.5
20260507014104 23 0 0.0 0.0 0.00 0.00 0.00 91 1012.5
20260507013604 23 0 0.0 0.0 0.00 0.00 0.00 91 1012.4
20260507013103 23 0 0.0 0.0 0.00 0.00 0.00 91 1012.4
20260507012603 24 0 0.0 0.0 0.00 0.00 0.00 90 1012.4
20260507012103 24 0 0.0 0.0 0.00 0.00 0.00 90 1012.4
20260507011604 24 0 0.0 0.0 0.00 0.00 0.00 89 1012.4
20260507011103 25 0 0.0 0.0 0.00 0.00 0.00 89 1012.3
20260507010604 25 0 0.0 0.0 0.00 0.00 0.00 89 1012.3
20260507005604 26 0 0.0 0.0 0.00 0.00 0.00 90 1012.3
20260507005103 25 0 0.0 0.0 0.00 0.00 0.00 90 1012.3
20260507004603 25 0 0.0 0.0 0.00 0.00 0.00 90 1012.3
20260507004104 25 0 0.0 0.0 0.00 0.00 0.00 90 1012.2
20260507003604 25 0 0.0 0.0 0.00 0.00 0.00 89 1012.2
20260507003104 25 0 0.0 0.0 0.00 0.00 0.00 90 1012.1
20260507002604 25 0 0.0 0.0 0.00 0.00 0.00 90 1012.1
20260507002103 25 0 0.0 0.0 0.00 0.00 0.00 90 1012.0
20260507001604 25 0 0.0 0.0 0.00 0.00 0.00 89 1012.0
20260507001104 25 0 0.0 0.0 0.00 0.00 0.00 89 1012.0
20260507000603 25 0 0.0 0.0 0.00 0.00 0.00 89 1012.0
20260507000104 25 0 0.0 0.0 0.00 0.00 0.00 90 1012.0
20260506235603 25 0 0.0 0.0 0.00 0.00 0.00 90 1012.0
20260506235104 25 0 0.0 0.0 0.00 0.00 0.00 90 1011.9
20260506234603 25 0 0.0 0.0 0.00 0.00 0.00 89 1011.9
20260506234103 25 0 0.0 0.0 0.00 0.00 0.00 90 1011.8
20260506233604 25 0 0.0 0.0 0.00 0.00 0.00 89 1011.8
20260506233103 25 0 0.0 0.0 0.00 0.00 0.00 89 1011.8
20260506232604 26 0 0.0 0.0 0.00 0.00 0.00 88 1011.7
20260506232103 26 0 0.0 0.0 0.00 0.00 0.00 88 1011.7
20260506231604 26 0 0.0 0.0 0.00 0.00 0.00 89 1011.6
20260506231104 26 0 0.0 0.0 0.00 0.00 0.00 88 1011.6
20260506230604 26 0 0.0 0.0 0.00 0.00 0.00 88 1011.6
20260506230103 27 0 0.0 0.0 0.00 0.00 0.00 88 1011.6
20260506225604 27 0 0.0 0.0 0.00 0.00 0.00 88 1011.6
20260506225104 27 0 0.0 0.0 0.00 0.00 0.00 88 1011.6
20260506224604 27 0 0.0 0.0 0.00 0.00 0.00 87 1011.5
20260506224103 28 0 0.0 0.0 0.00 0.00 0.00 87 1011.5
20260506223604 28 0 0.0 1.7 0.00 0.00 0.00 86 1011.5
20260506223103 28 0 0.9 1.7 0.00 0.00 0.00 86 1011.4
20260506222604 29 0 0.9 1.7 0.00 0.00 0.00 87 1011.4
20260506222103 29 0 0.9 1.7 0.00 0.00 0.00 88 1011.4
20260506221604 29 0 0.9 1.7 0.00 0.00 0.00 88 1011.4
20260506221108 28 0 0.9 1.7 0.00 0.00 0.00 89 1011.4
20260506220603 29 0 0.0 1.7 0.00 0.00 0.00 89 1011.3
20260506220104 30 0 0.0 0.9 0.00 0.00 0.00 88 1011.3
20260506215603 30 0 0.9 2.6 0.00 0.00 0.00 90 1011.3
20260506215104 30 0 1.7 2.6 0.00 0.00 0.00 93 1011.3
20260506214604 29 0 1.7 4.3 0.00 0.00 0.00 93 1011.2
20260506214104 29 0 1.7 2.6 0.00 0.00 0.00 93 1011.2
20260506213604 29 0 0.9 1.7 0.00 0.00 0.00 93 1011.1
20260506213104 29 0 1.7 1.7 0.00 0.00 0.00 93 1011.1
20260506212603 29 0 1.7 2.6 0.00 0.00 0.00 93 1011.1
20260506212104 29 0 0.0 1.7 0.00 0.00 0.00 93 1011.1
20260506211604 29 0 0.9 0.9 0.00 0.00 0.00 93 1010.9
20260506211104 29 0 0.0 0.0 0.00 0.00 0.00 92 1010.9
20260506210603 29 0 0.0 0.0 0.00 0.00 0.00 92 1010.9
20260506210105 29 0 0.0 0.0 0.00 0.00 0.00 92 1010.9
20260506205604 29 0 0.0 0.0 0.00 0.00 0.00 92 1010.9
20260506205104 29 0 0.0 0.0 0.00 0.00 0.00 91 1010.9
20260506204604 29 0 0.0 0.0 0.00 0.00 0.00 91 1010.9
20260506204104 29 0 0.0 0.9 0.00 0.00 0.00 91 1010.9
20260506203603 30 0 0.0 0.0 0.00 0.00 0.00 91 1010.9
20260506203104 30 0 0.0 0.0 0.00 0.00 0.00 91 1010.9
20260506202603 30 0 0.0 0.0 0.00 0.00 0.00 91 1010.9
20260506202104 30 0 0.0 0.0 0.00 0.00 0.00 91 1010.9
20260506201604 30 0 0.0 0.0 0.00 0.00 0.00 91 1010.9
20260506201103 30 0 0.0 0.0 0.00 0.00 0.00 91 1010.9
20260506200604 30 0 0.0 0.0 0.00 0.00 0.00 91 1010.9
20260506200103 30 0 0.0 0.0 0.00 0.00 0.00 90 1010.9
20260506195603 30 0 0.0 0.0 0.00 0.00 0.00 90 1010.8
20260506195104 31 0 0.0 0.0 0.00 0.00 0.00 90 1010.8
20260506194603 31 0 0.0 0.9 0.00 0.00 0.00 90 1010.8
20260506194104 31 0 0.0 0.0 0.00 0.00 0.00 89 1010.8
20260506193604 31 0 0.0 0.9 0.00 0.00 0.00 88 1010.7
20260506193104 31 0 0.0 0.9 0.00 0.00 0.00 88 1010.7
20260506192604 32 0 0.0 1.7 0.00 0.00 0.00 87 1010.7
20260506192104 32 0 0.0 0.9 0.00 0.00 0.00 86 1010.6
20260506191603 33 0 0.9 0.9 0.00 0.00 0.00 86 1010.6
20260506191103 33 0 0.0 0.0 0.00 0.00 0.00 85 1010.6
20260506190603 34 0 0.0 0.0 0.00 0.00 0.00 84 1010.6
20260506190103 34 0 0.0 0.0 0.00 0.00 0.00 84 1010.6
20260506185604 35 0 0.0 0.0 0.00 0.00 0.00 84 1010.5
20260506185104 35 0 0.0 0.0 0.00 0.00 0.00 83 1010.5
20260506184603 35 0 0.0 0.9 0.00 0.00 0.00 83 1010.5
20260506184104 35 0 0.0 0.0 0.00 0.00 0.00 82 1010.5
20260506183604 35 0 0.0 0.0 0.00 0.00 0.00 82 1010.5
20260506183103 35 0 0.0 0.0 0.00 0.00 0.00 83 1010.4
20260506182604 35 0 0.9 0.9 0.00 0.00 0.00 82 1010.4
20260506182104 35 0 0.9 1.7 0.00 0.00 0.00 82 1010.4
20260506181604 35 0 0.0 1.7 0.00 0.00 0.00 81 1010.3
20260506181104 36 0 0.9 1.7 0.00 0.00 0.00 81 1010.3
20260506180604 36 0 0.0 1.7 0.00 0.00 0.00 80 1010.3
20260506180104 36 0 0.0 1.7 0.00 0.00 0.00 80 1010.2
20260506175604 36 0 0.9 2.6 0.00 0.00 0.00 80 1010.2
20260506175103 36 0 0.9 1.7 0.00 0.00 0.00 80 1010.2
20260506174604 37 0 0.9 1.7 0.00 0.00 0.00 79 1010.2
20260506174104 37 0 0.9 2.6 0.00 0.00 0.00 78 1010.2
20260506173604 37 0 0.9 2.6 0.00 0.00 0.00 77 1010.1
20260506173103 37 0 1.7 2.6 0.00 0.00 0.00 76 1010.0
20260506172604 37 0 1.7 2.6 0.00 0.00 0.00 75 1010.0
20260506172104 37 0 0.0 1.7 0.00 0.00 0.00 74 1009.9
20260506171603 36 0 0.0 1.7 0.00 0.00 0.00 75 1009.8
20260506171104 36 0 0.9 2.6 0.00 0.00 0.00 77 1009.8
20260506170604 36 0 1.7 6.1 0.00 0.00 0.00 77 1009.8
20260506170104 36 0 4.3 11.3 0.00 0.00 0.00 78 1010.0
20260506165604 36 0 4.3 13.0 0.00 0.00 0.00 78 1010.0
20260506165104 37 0 4.3 10.4 0.00 0.00 0.00 76 1009.9
20260506164604 38 0 2.6 8.7 0.00 0.00 0.00 74 1009.8
20260506164104 38 0 0.9 2.6 0.00 0.00 0.00 73 1009.8
20260506163604 38 0 2.6 4.3 0.00 0.00 0.00 73 1009.7
20260506163103 38 0 2.6 5.2 0.00 0.00 0.00 73 1009.7
20260506162604 37 0 1.7 5.2 0.00 0.00 0.00 77 1009.6
20260506162103 37 0 2.6 4.3 0.00 0.00 0.00 77 1009.7
20260506161604 37 0 3.5 7.8 0.00 0.00 0.00 79 1009.6
20260506161104 37 0 1.7 7.0 0.00 0.00 0.00 80 1009.7
20260506160604 36 0 2.6 7.0 0.00 0.00 0.00 82 1009.7
20260506160103 36 0 2.6 5.2 0.00 0.00 0.00 81 1009.6
20260506155603 36 0 4.3 13.0 0.00 0.00 0.00 79 1009.7
20260506155104 37 0 3.5 11.3 0.00 0.00 0.00 77 1009.7
20260506154604 38 0 3.5 10.4 0.00 0.00 0.00 72 1009.5
20260506154104 39 0 4.3 11.3 0.00 0.00 0.00 72 1009.4
20260506153603 39 0 1.7 2.6 0.00 0.00 0.00 73 1009.3
20260506153104 39 0 0.9 2.6 0.00 0.00 0.00 71 1009.3
20260506152603 39 0 0.0 2.6 0.00 0.00 0.00 73 1009.2
20260506152104 39 331 0.0 1.7 0.00 0.00 0.00 72 1009.2
20260506151604 39 358 0.9 4.3 0.00 0.00 0.00 74 1009.3
20260506151103 39 356 0.9 2.6 0.00 0.00 0.00 74 1009.2
20260506150604 38 339 1.7 2.6 0.00 0.00 0.00 77 1009.2
20260506150103 38 0 0.9 1.7 0.00 0.00 0.00 76 1009.2
20260506145604 38 0 0.0 2.6 0.00 0.00 0.00 76 1009.3
20260506145103 38 345 0.9 2.6 0.00 0.00 0.00 76 1009.3
20260506144604 38 287 1.7 2.6 0.00 0.00 0.00 76 1009.2
20260506144105 38 0 0.9 2.6 0.00 0.00 0.00 78 1009.2
20260506143604 37 336 0.9 2.6 0.00 0.00 0.00 80 1009.2
20260506143104 37 0 0.9 4.3 0.00 0.00 0.00 80 1009.3
20260506142604 37 0 0.9 6.1 0.00 0.00 0.00 79 1009.4
20260506142104 39 0 1.7 2.6 0.00 0.00 0.00 74 1009.3
20260506141604 40 309 0.9 2.6 0.00 0.00 0.00 67 1009.1
20260506141103 41 214 1.7 4.3 0.00 0.00 0.00 66 1009.0
20260506140604 40 332 0.9 1.7 0.00 0.00 0.00 68 1008.9
20260506140103 40 359 0.9 1.7 0.00 0.00 0.00 67 1009.0
20260506135603 41 258 0.9 2.6 0.00 0.00 0.00 66 1008.9
20260506135104 41 327 0.9 2.6 0.00 0.00 0.00 66 1008.9
20260506134603 41 304 1.7 4.3 0.00 0.00 0.00 68 1008.8
20260506134104 41 209 0.9 2.6 0.00 0.00 0.00 68 1008.9
20260506133603 41 261 0.9 4.3 0.00 0.00 0.00 68 1008.9